Regional Weather Roundup
Issued by NWS

Home | Current Version | Previous Version | Graphics & Text | Print | Product List | Glossary On
Versions: 1 2 3 4 5 6 7 8 9 10 11 12 13 14 15 16 17 18 19 20 21 22 23 24 25 26 27 28 29 30 31 32 33 34 35 36 37 38 39 40 41 42 43 44 45 46 47 48 49 50
000
ASUS43 KIND 251809
RWRIN

WEATHER ROUNDUP FOR INDIANA
NATIONAL WEATHER SERVICE INDIANAPOLIS IN
100 PM EST SUN JAN 25 2015

NOTE: "FAIR" INDICATES FEW OR NO CLOUDS BELOW 12,000 FEET WITH NO
SIGNIFICANT WEATHER AND/OR OBSTRUCTIONS TO VISIBILITY.

* - STATION DOES NOT REPORT WEATHER SUCH AS PRECIPITATION OR FOG.

+ - STATION NOT QUALITY CONTROLLED BY THE NATIONAL WEATHER SERVICE.
    USE DATA WITH CAUTION...ESPECIALLY DEWPOINT AND RELATIVE
    HUMIDITY OBSERVATIONS.

INZ001>003-010>013-019-020-251900-
NORTHWEST INDIANA

CITY           SKY/WX    TMP DP  RH WIND       PRES   REMARKS
GARY /AIRPORT/ LGT SNOW  34  30  86 NE17G29   29.77S WCI  23
KNOX *+        CLOUDY    33  27  81 NE12      29.73S WCI  24
LA PORTE +     LGT SNOW  33  33  97 E10       29.76S WCI  25
6HR MIN TEMP:  33; 6HR MAX TEMP:  36;

MICHIGAN CITY+ LGT SNOW  32  30  93 NE9       29.78R WCI  24
MONTICELLO +   LGT SNOW  32  32  99 NE9       29.69S VSB 3/4 WCI  24
RENSSELAER +   LGT RAIN  34  34 100 NE13      29.71R WCI  25
VALPARAISO     LGT SNOW  32  31  96 NE15G24   29.75R FOG     WCI  22
6HR MIN TEMP:  32; 6HR MAX TEMP:  34; 6HR PCP:  0.02;


$$

LMZ046-743>745-251900-
SOUTHERN LAKE MICHIGAN

STATION/POSITION TIME  TEMP WIND        PRES
                       AIR  DIR/SP/G
                 (UTC) (F)  (DEG/KT/KT) (MB)
MICHIGAN CITY    1800   30   30/ 18/ 21   N/A

$$

INZ004-005-014>016-021>024-251900-
NORTH CENTRAL INDIANA

CITY           SKY/WX    TMP DP  RH WIND       PRES   REMARKS
GOSHEN         LGT SNOW  32  29  88 E15       29.76F FOG     WCI  22
6HR MIN TEMP:  32; 6HR MAX TEMP:  35; 6HR PCP: TRACE;

LOGANSPORT +   LGT SNOW  32  32 100 E9        29.70S VSB 3/4 WCI  24
PERU/GRISSOM   SNOW      33  32  97 E13       29.68S VSB 1/2 WCI  24
6HR MIN TEMP:  33; 6HR MAX TEMP:  34; 6HR PCP:  0.24;

ROCHESTER +    LGT SNOW  34  34 100 E18G26    29.73R WCI  23
SOUTH BEND     LGT SNOW  30  26  85 E13G18    29.78S FOG     WCI  20
6HR MIN TEMP:  30; 6HR MAX TEMP:  35; 6HR PCP:  0.02;

WARSAW +       LGT SNOW  32  30  93 E15G23    29.74F WCI  22

$$

INZ006>009-017-018-025>027-251900-
NORTHEAST INDIANA

CITY           SKY/WX    TMP DP  RH WIND       PRES   REMARKS
ANGOLA *+      CLOUDY    25  21  86 E15       29.79S WCI  12
AUBURN +       LGT SNOW  28  25  86 NE15G23   29.79S WCI  17
FORT WAYNE     LGT SNOW  28  25  88 E22G32    29.76F VSB 1   WCI  14
6HR MIN TEMP:  28; 6HR MAX TEMP:  34; 6HR PCP:  0.03;

HUNTINGTON +   LGT SNOW  29  24  82 E15G26    29.73F WCI  17
6HR MIN TEMP:  29; 6HR MAX TEMP:  33; 6HR PCP:  0.04;


$$

INZ028-029-035-036-043>045-051>053-251900-
WEST CENTRAL INDIANA

CITY           SKY/WX    TMP DP  RH WIND       PRES   REMARKS
CRAWFORDSVL +  CLOUDY    36  30  80 E9        29.63
GREENCASTLE +  CLOUDY    36  32  87 E6        29.64S
LAFAYETTE      LGT SNOW  33  32  96 NE9       29.67F FOG     WCI  25
6HR MIN TEMP:  32; 6HR MAX TEMP:  35; 6HR PCP:  0.08;

TERRE HAUTE    CLOUDY    38  36  92 SE6       29.63F FOG
6HR MIN TEMP:  34; 6HR MAX TEMP:  38; 6HR PCP:  0.10;


$$

INZ030>032-037>040-046>048-054>057-064-065-251900-
CENTRAL INDIANA

CITY           SKY/WX    TMP DP  RH WIND       PRES   REMARKS
CP ATTERBURY + CLOUDY    39  32  75 SE6       29.66F
COLUMBUS       CLOUDY    39  32  75 SE6       29.66F
GREENWOOD *+   CLOUDY    37  32  81 SE6       29.66F
INDIANAPOLIS   CLOUDY    35  32  88 E8        29.64F WCI  29
6HR MIN TEMP:  32; 6HR MAX TEMP:  35; 6HR PCP: TRACE;

-EAGLE CREEK   CLOUDY    37  33  85 E6        29.65S
6HR MIN TEMP:  34; 6HR MAX TEMP:  37; 6HR PCP:  0.01;

KOKOMO *+      CLOUDY    34  30  86 E13       29.68S WCI  25
MARION +       LGT SNOW  32  32 100 E15       29.69S VSB 1   WCI  22
MT COMFORT *+  CLOUDY    36  36 100 SE7       29.67S
SHELBYVILLE    CLOUDY    39  34  82 E6        29.65F
6HR MIN TEMP:  36; 6HR MAX TEMP:  39; 6HR PCP:  0.02;

ZIONSVILLE +   RAIN      37  33  87 E6        29.66F
6HR MIN TEMP:  34; 6HR MAX TEMP:  37; 6HR PCP:  0.01;


$$

INZ033-034-041-042-049-050-058-059-251900-
EAST CENTRAL INDIANA

CITY           SKY/WX    TMP DP  RH WIND       PRES   REMARKS
MUNCIE         LGT RAIN  35  33  92 E10       29.67F FOG     WCI  27
6HR MIN TEMP:  33; 6HR MAX TEMP:  35; 6HR PCP:  0.08;


$$

INZ060-061-067>069-081>083-085>088-251900-
SOUTHWEST INDIANA

CITY           SKY/WX    TMP DP  RH WIND       PRES   REMARKS
EVANSVILLE     LGT RAIN  42  39  89 SE6       29.62F
6HR MIN TEMP:  42; 6HR MAX TEMP:  44; 6HR PCP:  0.09;

HUNTINGBURG *+ CLOUDY    39  36  87 SE8       29.63F
6HR MIN TEMP:  39; 6HR MAX TEMP:  41;

WASHINGTON +   DRIZZLE   39  36  87 S8        29.62F
6HR MIN TEMP:  36; 6HR MAX TEMP:  39; 6HR PCP:  0.06;


$$

INZ062-063-066-070>080-084-089>092-251900-
SOUTH CENTRAL AND SOUTHEAST INDIANA

CITY           SKY/WX    TMP DP  RH WIND       PRES   REMARKS
BLOOMINGTON    LGT RAIN  39  35  86 S3        29.63F FOG
6HR MIN TEMP:  36; 6HR MAX TEMP:  40; 6HR PCP:  0.01;

NORTH VERNON + RAIN      39  37  93 SE5       29.67

$$




USA.gov is the U.S. government's official web portal to all federal, state and local government web resources and services.